Track QUANTUTONG 1 now! 10-day predictions QUANTUTONG 1 is classified as:
1 43158U 18008D 21019.82316552 .00000559 00000-0 36992-4 0 9995 2 43158 97.4215 87.7583 0014650 116.4315 308.3278 15.11121732165496